Location: Helion Bumpstead
(52.0500°N, 0.4000°E)
Time: 21:28:40
(UTC+00:00)

YAOGAN 11 - Pass Details

Date: 15 November 2025
Orbit: 599 x 649 km, 98.4° (Epoch: 06 December)

Event Time Altitude Azimuth Distance (km) Brightness Sun altitude
Rises 06:38:19 0° 157° (SSE) 2,958 8.3 -6.4°
Reaches altitude 10° 06:40:32 10° 155° (SSE) 2,051 7.5 -6.1°
Maximum altitude 06:44:59 72° 72° (ENE) 686 4.5 -5.5°
Drops below altitude 10° 06:49:27 10° 348° (NNW) 2,053 6.4 -4.8°
Sets 06:51:40 0° 347° (NNW) 2,961 7.2 -4.5°
